{"data":{"norad_id":64045,"intl_designator":"2025-102Z","name":"STARLINK-34033","alt_names":[],"object_type":"PAYLOAD","status":"ACTIVE","operator":null,"country":"US","launch_date":"2025-05-16","launch_site_code":"AFWTR","launch_vehicle":null,"mission":null,"orbit_class":"UNKNOWN","rcs_meters":null,"size_class":null,"mass_kg":null,"dimensions":null,"purposes":["comms"],"wikipedia_slug":null,"has_3d_model":false,"image_url":null,"decayed_at":null,"tle_current":{"epoch":"2026-05-24T19:14:13.844832Z","epoch_age_seconds":91879,"freshness":"FRESH","line1":"1 64045U 25102Z   26144.80154913  .00003377  00000+0  29055-3 0  9990","line2":"2 64045  70.0002 282.5187 0002694 273.8764  86.2087 14.98349863 57289","mean_motion":14.98349863,"eccentricity":0.0002694,"inclination_deg":70.0002,"raan_deg":282.5187,"arg_perigee_deg":273.8764,"mean_anomaly_deg":86.2087,"bstar":0.00029055,"rev_number":5728,"period_min":96.105725075239,"perigee_km":570.1221015168,"apogee_km":573.86683235118,"semimajor_km":6950.131466934,"source":"CELESTRAK","updated_at":"2026-05-25T13:38:20.256051Z"}}}